Joliet, IL

8:01 PM CST on January 16, 2017 (GMT -0600)
Joliet Regional

Weather History for KJOT - September, 2013

Change the Weather History Date:

Thursday, September 19, 2013

  Actual Average (KARR) Record (KARR)
Temperature  
Mean Temperature 79 °F -  
Max Temperature 90 °F 72 °F 90 °F (2013)
Min Temperature 68 °F 47 °F 35 °F (2012)
Cooling Degree Days 14    
Growing Degree Days 29 (Base 50)    
Moisture  
Dew Point 67 °F    
Average Humidity 71    
Maximum Humidity 92    
Minimum Humidity 41    
Precipitation  
Precipitation 0.00 in - - ()
Sea Level Pressure  
Sea Level Pressure 29.90 in    
Wind  
Wind Speed 7 mph (South)    
Max Wind Speed 14 mph    
Max Gust Speed 22 mph    
Visibility 8 miles    
Events Thunderstorm    
Averages and records for this station are not official NWS values.
T = Trace of Precipitation, MM = Missing Value Source: NWS Daily Summary

Daily Weather History Graph

Daily Weather History Graph

Search for Another Location

Airport or City:

Trip Planner

Search our weather history database for the weather conditions in past years. The results will help you decide how hot, cold, wet, or windy it might be!

Date:

Astronomy

Sep. 19, 2013 Rise Set
Actual Time 6:37 AM CDT 6:54 PM CDT
Civil Twilight 6:09 AM CDT 7:22 PM CDT
Nautical Twilight 5:37 AM CDT 7:54 PM CDT
Astronomical Twilight 5:03 AM CDT 8:28 PM CDT
Moon 6:51 PM CDT (9/19) 6:47 AM CDT (9/19)
Length of Visible Light 13h 12m
Length of Day
12h 17m
Full, 100% of the Moon is Illuminated
Sep 19
Full
Sep 26
Last Quarter
Oct 4
New
Oct 11
First Quarter
Oct 18
Full

Hourly Weather History & Observations

Time (CDT) Temp. Heat Index Dew Point Humidity Pressure Visibility Wind Dir Wind Speed Gust Speed Precip Events Conditions
12:15 AM 68.9 °F - 65.5 °F 89% 29.98 in 10.0 mi SSE 5.8 mph - N/A   Clear
12:35 AM 69.3 °F - 65.8 °F 89% 29.98 in 7.0 mi SSE 5.8 mph - N/A   Scattered Clouds
12:55 AM 69.6 °F - 66.2 °F 89% 29.98 in 7.0 mi SSE 5.8 mph - N/A   Scattered Clouds
1:15 AM 69.8 °F - 66.4 °F 89% 29.99 in 5.0 mi SSE 4.6 mph - N/A   Scattered Clouds
1:35 AM 69.8 °F - 66.6 °F 89% 29.98 in 5.0 mi SSE 6.9 mph - N/A   Clear
1:55 AM 69.4 °F - 66.6 °F 91% 29.98 in 5.0 mi South 5.8 mph - N/A   Scattered Clouds
2:15 AM 70.2 °F - 67.1 °F 90% 29.98 in 4.0 mi South 6.9 mph - N/A   Scattered Clouds
2:35 AM 70.2 °F - 67.1 °F 90% 29.97 in 4.0 mi SSE 5.8 mph - N/A   Mostly Cloudy
2:55 AM 70.2 °F - 67.3 °F 91% 29.97 in 4.0 mi South 6.9 mph - N/A   Scattered Clouds
3:15 AM 70.3 °F - 67.3 °F 90% 29.97 in 4.0 mi South 6.9 mph - N/A   Scattered Clouds
3:35 AM 70.0 °F - 67.3 °F 91% 29.96 in 4.0 mi South 5.8 mph - N/A   Scattered Clouds
3:55 AM 69.8 °F - 67.3 °F 92% 29.95 in 3.0 mi South 5.8 mph - N/A   Clear
4:15 AM 69.8 °F - 67.3 °F 92% 29.95 in 3.0 mi South 8.1 mph - N/A   Clear
4:35 AM 69.8 °F - 67.5 °F 92% 29.95 in 3.0 mi SSE 6.9 mph - N/A   Mostly Cloudy
4:55 AM 70.0 °F - 67.6 °F 92% 29.95 in 3.0 mi South 6.9 mph - N/A   Mist
5:15 AM 69.8 °F - 67.3 °F 92% 29.95 in 3.0 mi SSE 6.9 mph - N/A   Scattered Clouds
5:35 AM 70.0 °F - 67.6 °F 92% 29.94 in 3.0 mi SSE 5.8 mph - N/A   Mostly Cloudy
5:55 AM 69.8 °F - 67.5 °F 92% 29.95 in 3.0 mi SSE 5.8 mph - N/A   Mostly Cloudy
6:15 AM 70.0 °F - 67.5 °F 92% 29.95 in 4.0 mi SSE 5.8 mph - N/A Thunderstorm Scattered Clouds
6:35 AM 70.0 °F - 67.6 °F 92% 29.96 in 3.0 mi South 4.6 mph - N/A Thunderstorm Mist
6:55 AM 70.3 °F - 68.0 °F 92% 29.95 in 4.0 mi South 5.8 mph - N/A   Scattered Clouds
7:15 AM 70.9 °F - 68.0 °F 91% 29.95 in 4.0 mi South 6.9 mph - N/A   Scattered Clouds
7:35 AM 71.6 °F - 68.2 °F 89% 29.95 in 5.0 mi South 5.8 mph - N/A   Scattered Clouds
7:55 AM 72.0 °F - 68.2 °F 88% 29.96 in 5.0 mi South 5.8 mph - N/A Thunderstorm Scattered Clouds
8:15 AM 72.5 °F - 68.0 °F 86% 29.95 in 5.0 mi South 8.1 mph - N/A   Haze
8:35 AM 73.2 °F - 68.4 °F 85% 29.95 in 5.0 mi South 6.9 mph - N/A   Haze
8:55 AM 74.3 °F - 68.7 °F 83% 29.95 in 5.0 mi SSW 6.9 mph - N/A   Haze
9:15 AM 73.6 °F - 68.4 °F 84% 29.95 in 7.0 mi SSW 9.2 mph - N/A   Scattered Clouds
9:35 AM 73.6 °F - 68.4 °F 84% 29.95 in 7.0 mi SSW 8.1 mph - N/A   Scattered Clouds
9:55 AM 75.6 °F - 69.4 °F 81% 29.94 in 7.0 mi South 9.2 mph - N/A   Scattered Clouds
10:15 AM 76.1 °F - 69.3 °F 79% 29.94 in 7.0 mi South 6.9 mph - N/A   Clear
10:35 AM 79.2 °F - 68.9 °F 71% 29.95 in 7.0 mi SSW 10.4 mph - N/A Thunderstorm Scattered Clouds
10:55 AM 79.7 °F - 69.1 °F 70% 29.95 in 7.0 mi SSW 11.5 mph - N/A Thunderstorm Scattered Clouds
11:15 AM 80.6 °F 83.6 °F 69.1 °F 68% 29.94 in 10.0 mi SSW 8.1 mph - N/A   Scattered Clouds
11:35 AM 82.2 °F 86.0 °F 69.6 °F 66% 29.94 in 10.0 mi SSW 8.1 mph - N/A   Clear
11:55 AM 83.3 °F 86.2 °F 67.8 °F 59% 29.94 in 10.0 mi SSW 5.8 mph - N/A   Clear
12:15 PM 83.7 °F 86.5 °F 67.3 °F 58% 29.94 in 10.0 mi SSW 8.1 mph - N/A   Scattered Clouds
12:35 PM 83.7 °F 86.5 °F 67.3 °F 58% 29.92 in 10.0 mi SSW 3.5 mph - N/A   Scattered Clouds
12:55 PM 85.8 °F 88.8 °F 67.3 °F 54% 29.92 in 10.0 mi SSW 8.1 mph - N/A   Scattered Clouds
1:15 PM 86.5 °F 89.3 °F 67.3 °F 52% 29.91 in 10.0 mi SW 5.8 mph - N/A   Clear
1:35 PM 88.2 °F 91.3 °F 67.3 °F 50% 29.89 in 10.0 mi South 5.8 mph - N/A   Clear
1:55 PM 88.9 °F 91.4 °F 66.2 °F 47% 29.89 in 10.0 mi SW 6.9 mph - N/A   Clear
2:15 PM 89.8 °F 92.5 °F 66.4 °F 46% 29.88 in 10.0 mi WSW 9.2 mph - N/A   Clear
2:35 PM 89.6 °F 92.2 °F 66.4 °F 46% 29.88 in 10.0 mi SSW 9.2 mph - N/A   Clear
2:55 PM 89.2 °F 91.3 °F 65.5 °F 45% 29.87 in 10.0 mi SSW 11.5 mph 17.3 mph N/A   Clear
3:15 PM 90.3 °F 91.9 °F 64.6 °F 42% 29.86 in 10.0 mi SW 9.2 mph 18.4 mph N/A   Clear
3:35 PM 90.5 °F 92.2 °F 64.4 °F 42% 29.85 in 10.0 mi SW 10.4 mph 18.4 mph N/A   Clear
3:55 PM 90.7 °F 92.1 °F 63.7 °F 41% 29.83 in 10.0 mi SSW 12.7 mph 17.3 mph N/A   Clear
4:15 PM 90.5 °F 91.8 °F 64.0 °F 41% 29.83 in 10.0 mi SSW 9.2 mph 16.1 mph N/A   Clear
4:35 PM 90.1 °F 91.2 °F 63.7 °F 41% 29.83 in 10.0 mi SSW 8.1 mph 16.1 mph N/A   Clear
4:55 PM 89.6 °F 91.1 °F 64.6 °F 43% 29.81 in 10.0 mi SSW 9.2 mph - N/A   Clear
5:15 PM 87.8 °F 88.8 °F 63.1 °F 44% 29.81 in 10.0 mi South 13.8 mph 21.9 mph N/A   Clear
5:35 PM 86.4 °F 87.0 °F 62.4 °F 45% 29.81 in 10.0 mi South 6.9 mph - N/A   Clear
5:55 PM 86.0 °F 87.1 °F 63.9 °F 47% 29.81 in 10.0 mi South 5.8 mph - N/A   Clear
6:15 PM 85.1 °F 86.6 °F 64.6 °F 50% 29.82 in 10.0 mi South 5.8 mph - N/A   Clear
6:35 PM 84.0 °F 85.8 °F 65.1 °F 53% 29.83 in 10.0 mi South 5.8 mph - N/A   Clear
6:55 PM 82.0 °F 84.3 °F 66.4 °F 59% 29.84 in 10.0 mi SE 5.8 mph - N/A   Clear
7:15 PM 79.7 °F - 67.3 °F 66% 29.84 in 10.0 mi SE 8.1 mph - N/A   Clear
7:35 PM 78.8 °F - 68.0 °F 69% 29.84 in 10.0 mi SSE 6.9 mph - N/A   Clear
7:55 PM 77.9 °F - 68.0 °F 71% 29.84 in 10.0 mi South 6.9 mph - N/A   Clear
8:15 PM 77.5 °F - 68.2 °F 73% 29.84 in 10.0 mi South 5.8 mph - N/A   Clear
8:35 PM 77.2 °F - 68.4 °F 74% 29.84 in 10.0 mi South 4.6 mph - N/A   Clear
8:55 PM 76.5 °F - 68.2 °F 75% 29.83 in 10.0 mi SSE 4.6 mph - N/A   Clear
9:15 PM 76.5 °F - 68.2 °F 75% 29.83 in 10.0 mi South 4.6 mph - N/A   Clear
9:35 PM 77.0 °F - 68.0 °F 74% 29.83 in 10.0 mi South 5.8 mph - N/A   Clear
9:55 PM 77.7 °F - 67.5 °F 71% 29.83 in 10.0 mi SSW 6.9 mph - N/A   Scattered Clouds
10:15 PM 79.2 °F - 66.7 °F 66% 29.83 in 10.0 mi SSW 9.2 mph - N/A   Clear
10:35 PM 79.0 °F - 67.1 °F 67% 29.84 in 10.0 mi WSW 9.2 mph 16.1 mph N/A   Scattered Clouds
10:55 PM 79.2 °F - 66.4 °F 65% 29.84 in 10.0 mi WSW 6.9 mph - N/A   Scattered Clouds
11:15 PM 78.4 °F - 64.6 °F 62% 29.85 in 10.0 mi West 4.6 mph - N/A   Scattered Clouds
11:35 PM 77.0 °F - 61.9 °F 59% 29.85 in 10.0 mi Calm Calm - N/A   Scattered Clouds
11:55 PM 76.1 °F - 61.7 °F 61% 29.85 in 10.0 mi SW 3.5 mph - N/A   Scattered Clouds